Temperature
12 12 13 14 14 15 15 15 15 15 15 15 15 15 15 15 15 15 15 15 15 15 16 16 16 16 16 16 17 17 17 17 17 17 17 17 17 18 17 17 17 17 17
9 11 13 13 14 14 15 15 15 15 15 15 15 15 15 15 15 15 15 15 15 15 15 16 16 16 16 16 16 16 17 17 17 17 17 17 17 17 17 17 17 17 17
9 10 12 13 13 14 14 14 15 15 15 15 15 15 15 15 15 15 15 15 15 15 15 15 15 15 16 16 16 16 16 17 17 17 17 17 17 17 17 17 17 17 17
9 10 11 12 13 13 14 14 14 14 14 14 15 15 15 15 15 15 15 15 15 15 15 15 15 15 15 16 16 16 16 16 17 17 17 17 16 17 17 17 17 17 17
9 10 11 12 12 13 13 13 13 13 14 14 14 14 14 14 14 14 14 14 14 14 14 15 15 15 15 15 15 16 16 16 16 16 17 16 16 16 17 17 17 17 17
9 10 10 11 12 12 12 12 12 13 13 13 13 13 13 14 14 14 14 14 14 14 14 14 14 15 15 15 15 15 15 16 16 16 16 16 16 16 17 17 17 17 17
10 10 11 11 11 12 12 12 12 12 12 12 13 13 13 13 13 13 13 13 14 14 14 14 14 14 14 15 15 15 15 15 15 16 16 16 16 16 17 17 17 17 17
9 10 10 11 11 11 11 11 11 12 12 12 12 12 12 12 12 12 12 13 13 13 13 14 14 14 14 14 14 15 15 15 15 15 16 16 15 16 16 16 17 17 17
9 10 10 10 11 11 11 11 11 11 11 11 11 12 12 12 12 12 12 12 12 12 13 13 13 13 14 14 14 14 15 15 15 15 15 15 15 16 16 16 16 17 17
9 9 10 10 10 10 10 10 10 10 10 10 10 11 11 11 12 12 12 12 11 12 12 12 12 13 13 13 14 14 14 15 15 15 15 15 15 15 16 16 16 16 17
8 8 9 9 9 9 9 9 9 8 8 8 8 9 9 10 10 11 11 11 11 11 11 11 12 12 12 13 13 13 14 14 15 15 15 15 15 15 16 16 16 16 16
7 7 7 8 8 8 8 8 8 7 6 6 6 6 6 7 8 8 9 10 10 11 11 11 11 11 12 12 12 13 13 13 14 14 14 15 15 15 15 15 16 16 16
5 6 6 6 6 6 6 6 5 5 5 5 4 4 4 4 5 6 7 8 9 9 10 11 11 11 11 11 12 12 12 13 13 13 14 14 15 15 15 15 15 15 16
5 5 5 4 4 4 4 4 3 3 3 3 3 2 2 2 3 4 4 5 5 6 7 8 9 10 11 11 11 11 12 12 13 13 13 14 14 14 14 15 15 15 15
4 3 3 3 3 3 3 2 2 1 1 1 1 1 0 1 1 1 2 3 3 3 4 6 7 8 9 10 10 10 11 12 12 13 13 13 14 14 14 14 14 15 15
2 2 2 2 3 2 2 1 1 1 0 -0 -0 -1 -1 -1 -1 -1 0 1 1 1 2 3 4 5 6 7 9 10 10 11 11 12 13 13 13 13 13 14 14 14 15
1 1 1 1 1 1 1 0 0 -0 -0 -1 -1 -2 -2 -2 -2 -2 -2 -1 -1 -1 0 1 2 3 4 5 7 9 10 10 10 11 12 12 13 13 13 13 13 14 14
1 1 0 -0 -0 -0 -0 -1 -1 -1 -1 -2 -2 -2 -3 -3 -3 -3 -3 -3 -3 -3 -2 -1 -0 1 2 3 5 7 8 9 10 11 11 12 12 12 13 13 13 13 13
0 -0 -1 -1 -1 -1 -1 -1 -2 -2 -2 -3 -3 -3 -4 -4 -4 -4 -4 -4 -4 -4 -3 -3 -2 -2 -0 1 3 4 6 8 9 10 10 11 11 12 12 12 12 12 13
-1 -1 -1 -2 -2 -2 -2 -2 -2 -2 -3 -4 -4 -4 -5 -5 -5 -5 -5 -5 -5 -5 -5 -4 -4 -3 -2 -1 1 2 4 6 8 9 10 10 11 11 12 12 12 12 12
-1 -2 -2 -3 -3 -4 -4 -4 -4 -4 -4 -5 -5 -5 -6 -6 -6 -6 -6 -6 -6 -6 -6 -6 -5 -5 -4 -3 -2 1 4 5 7 9 10 10 11 11 11 12 12 12 12
-2 -3 -3 -4 -4 -5 -5 -5 -6 -6 -6 -6 -6 -6 -7 -7 -7 -7 -7 -7 -7 -7 -7 -6 -6 -6 -5 -5 -4 -3 -1 2 6 7 8 9 10 10 11 11 12 12 12
-3 -3 -4 -4 -5 -5 -6 -6 -6 -6 -6 -6 -6 -7 -7 -8 -8 -8 -8 -8 -8 -8 -7 -7 -6 -6 -5 -5 -4 -3 -2 -0 0 6 8 9 9 10 10 11 11 11 12
-3 -4 -4 -5 -5 -6 -6 -7 -7 -8 -8 -8 -8 -8 -8 -8 -9 -9 -9 -9 -9 -9 -8 -8 -7 -6 -6 -5 -4 -4 -3 -3 -2 -0 6 8 8 9 10 11 11 11 11
-4 -4 -5 -5 -6 -6 -7 -7 -8 -8 -9 -9 -9 -9 -9 -9 -10 -10 -10 -10 -9 -9 -9 -8 -7 -7 -6 -5 -5 -4 -4 -3 -3 -2 -1 5 7 8 8 10 11 11 11
-4 -5 -5 -6 -6 -7 -7 -8 -8 -9 -9 -9 -9 -9 -10 -10 -10 -10 -10 -10 -10 -10 -9 -8 -8 -7 -6 -6 -5 -5 -4 -3 -3 -2 -2 -0 1 5 7 8 10 11 11
Wind_Speed
16 28 32 34 33 32 31 29 27 25 24 21 19 18 17 16 15 15 13 12 11 10 10 10 10 10 10 9 8 6 5 4 4 4 5 4 3 3 3 2 1 1 8
15 22 29 32 33 33 32 31 31 30 29 27 24 22 19 17 16 15 14 14 13 12 11 12 12 11 11 11 9 7 6 6 5 4 5 7 6 5 5 2 2 5 7
15 20 26 30 32 33 33 32 31 31 30 30 28 27 24 21 19 17 16 15 15 14 13 13 13 12 12 11 11 10 8 8 7 7 7 10 10 9 7 5 2 4 4
15 19 26 29 31 32 32 32 32 31 31 31 30 28 27 25 23 21 19 17 17 16 14 15 14 13 12 12 11 11 11 10 9 9 9 12 13 12 10 7 5 4 4
17 20 26 30 30 31 32 31 32 31 31 31 31 30 28 27 26 24 22 20 18 17 16 15 15 14 13 12 12 12 12 11 11 11 13 14 11 13 11 9 8 6 5
19 23 26 30 30 30 30 31 30 31 31 31 31 31 29 28 27 26 25 24 21 20 18 16 16 14 13 12 12 13 14 13 11 12 15 16 9 14 13 11 9 7 6
18 23 26 30 31 31 29 30 30 30 31 30 30 31 30 28 27 27 26 26 25 23 21 19 17 15 14 13 13 13 14 14 12 13 14 14 10 15 14 13 12 10 9
20 23 26 29 31 32 30 30 29 28 29 29 29 31 30 28 27 27 27 27 26 25 24 22 19 16 14 14 14 13 14 14 13 14 15 14 11 13 14 14 13 13 12
22 23 26 28 30 32 31 31 31 29 28 29 28 30 30 29 28 27 27 28 27 27 26 24 22 19 17 15 14 14 13 14 14 12 14 13 14 14 14 14 14 14 14
19 23 26 28 29 30 28 29 30 29 29 30 28 30 29 29 28 28 28 29 28 28 27 26 24 23 20 18 16 15 14 12 13 14 14 13 14 16 16 14 14 16 16
17 20 25 27 28 29 27 27 27 27 27 28 27 29 27 26 25 25 28 29 29 29 28 27 28 26 23 18 18 19 16 11 13 14 14 16 16 17 16 14 13 15 16
17 16 23 25 27 28 26 26 25 24 25 26 26 27 25 25 24 25 27 28 28 28 26 27 29 26 22 17 17 18 12 14 15 14 14 19 20 18 16 14 13 14 16
13 15 19 24 25 26 24 23 22 22 23 24 26 26 25 23 23 23 23 23 25 24 22 24 24 21 21 18 15 14 12 13 12 13 14 20 21 18 16 15 15 15 16
13 15 17 24 24 24 24 22 22 21 21 22 24 25 23 19 20 21 20 22 21 19 19 20 18 20 21 21 18 13 12 11 12 12 11 18 21 17 15 15 15 16 17
14 16 14 22 23 24 22 21 21 20 21 23 23 23 23 19 17 19 19 20 21 20 19 17 16 16 15 16 17 15 12 12 13 13 11 17 21 18 16 16 17 18 18
14 14 14 20 24 25 22 20 20 21 22 22 21 23 23 22 20 18 17 18 18 20 21 18 16 13 11 12 15 16 14 13 13 13 12 15 21 21 18 18 18 20 20
13 14 14 20 25 25 23 22 21 22 23 21 21 22 23 25 23 21 16 14 17 21 21 18 16 13 11 12 15 16 15 14 13 13 13 11 15 20 21 20 20 20 21
12 14 13 21 22 23 22 21 21 22 23 22 22 21 23 25 25 22 17 15 20 21 17 11 11 12 12 13 13 14 14 14 17 15 13 10 10 13 18 21 21 21 22
12 13 13 15 18 21 21 22 21 21 21 22 21 21 24 24 25 23 19 18 22 18 13 12 12 12 13 13 14 13 12 13 15 16 15 11 10 10 11 19 23 23 23
11 11 12 13 17 20 19 19 17 17 19 21 20 21 25 24 25 24 19 20 21 14 12 13 14 13 12 13 15 14 13 14 14 15 16 13 8 10 11 11 14 18 23
11 12 12 13 13 14 11 12 12 13 12 14 20 24 25 25 25 23 18 18 18 12 14 15 15 15 13 12 12 13 12 13 15 14 13 12 11 8 9 10 10 12 14
10 11 11 12 12 12 11 10 9 10 9 14 19 22 23 25 25 22 19 14 15 12 15 15 15 12 12 11 11 11 7 8 5 10 10 12 12 9 9 8 10 11 11
9 10 12 11 11 13 17 13 12 7 9 9 11 9 21 25 24 23 21 18 15 12 13 15 15 15 13 12 9 6 6 6 12 11 12 9 7 8 9 8 10 10 12
9 9 9 10 10 12 15 11 13 11 11 13 11 10 19 23 23 23 22 21 16 13 14 14 14 14 13 11 9 7 8 9 7 8 12 12 13 10 8 9 9 9 10
8 8 9 10 9 11 13 10 11 11 10 10 11 12 10 17 20 22 23 21 17 13 13 15 16 14 12 12 10 10 10 9 11 10 13 16 12 11 9 7 6 8 8
7 7 8 9 10 9 9 9 11 12 13 14 14 12 12 10 13 19 23 21 19 15 14 15 15 16 13 13 10 10 11 9 9 10 12 16 16 14 13 10 6 5 6
Wind_Direction
338 344 356 10 19 24 24 22 19 14 9 3 358 354 354 354 351 350 351 352 348 341 332 324 317 314 310 307 307 306 301 299 299 299 289 271 235 182 160 182 300 150 124
327 355 5 16 20 23 24 24 24 23 20 16 9 1 354 349 346 343 341 341 340 338 332 323 315 308 301 299 297 292 280 274 269 267 269 263 235 206 187 193 6 110 125
345 9 9 19 24 25 25 24 23 22 21 19 15 12 6 358 351 345 338 336 333 330 327 320 314 305 296 291 288 283 275 266 260 252 254 256 226 207 197 189 146 117 125
357 21 15 20 24 25 24 24 23 22 21 20 16 12 9 6 2 356 347 341 337 330 323 317 311 305 295 284 277 272 268 262 257 252 250 249 225 205 197 192 191 177 165
11 22 20 19 21 23 23 22 21 20 19 18 16 14 11 8 6 4 359 351 344 336 325 315 308 304 298 287 274 265 261 256 251 248 259 265 225 192 192 193 196 197 188
18 17 19 19 17 18 20 18 18 17 16 16 14 12 10 8 7 6 5 1 353 345 334 321 310 302 298 293 280 265 257 252 245 241 250 261 221 179 189 192 197 201 195
17 16 15 17 15 13 14 14 12 13 12 11 12 9 6 5 5 5 5 2 357 351 343 331 317 306 298 295 288 273 260 252 241 246 249 257 236 184 192 194 198 202 200
18 17 15 14 12 9 7 9 6 7 8 6 8 7 3 2 1 1 2 359 356 352 347 339 328 313 303 297 293 284 268 253 244 241 246 250 247 194 198 199 201 203 202
22 18 15 13 10 6 2 3 1 1 4 2 4 4 1 359 358 357 358 354 352 350 347 342 336 323 307 295 290 288 276 254 248 258 254 238 234 215 209 206 210 208 203
24 19 15 11 8 4 357 359 358 357 1 359 359 1 360 357 355 353 353 349 349 348 345 344 342 332 318 299 286 279 272 261 245 250 252 241 227 218 214 211 217 215 207
20 16 14 8 6 2 357 357 354 355 358 356 355 356 357 354 352 349 349 345 347 345 345 347 344 337 329 311 290 272 259 244 244 243 239 232 223 214 212 213 218 217 210
14 11 12 6 5 2 357 355 352 353 355 354 352 352 355 354 350 349 345 343 344 342 347 346 342 340 337 325 313 300 263 242 245 245 229 221 218 214 213 214 217 217 213
13 10 10 5 4 2 356 353 351 351 353 350 348 351 354 353 349 347 344 339 339 340 347 344 341 336 332 326 317 308 281 260 258 252 231 214 207 211 216 219 220 221 218
13 11 8 2 3 0 355 352 350 350 350 347 344 350 354 354 349 346 342 336 336 339 344 341 332 329 330 326 320 313 300 277 265 260 250 205 195 201 213 222 227 227 225
13 10 6 0 3 358 355 353 350 349 348 344 343 348 354 355 347 344 338 336 333 341 342 333 328 329 329 326 324 322 313 304 287 267 253 204 190 193 207 221 230 232 230
11 8 3 0 3 358 355 352 349 347 346 343 342 345 354 355 344 341 335 333 333 341 335 329 328 328 325 325 325 324 317 310 299 287 266 219 201 197 205 219 228 233 233
10 8 4 1 1 357 351 351 349 347 345 341 341 345 353 351 343 341 334 330 333 336 332 329 327 329 328 328 325 322 318 312 306 295 282 250 219 210 207 214 224 230 233
11 9 6 1 358 355 350 351 348 346 344 341 341 346 351 347 344 342 335 329 333 335 331 329 333 335 331 327 323 317 312 309 305 298 289 274 243 219 214 215 220 226 230
14 8 3 0 357 353 350 350 344 345 342 338 340 346 347 345 344 341 332 332 335 334 332 333 335 332 330 326 320 310 305 304 301 298 291 277 261 239 213 213 216 221 225
15 8 0 358 356 353 352 347 342 343 340 337 339 346 345 343 343 338 333 336 335 331 331 331 329 331 327 324 319 313 306 293 285 280 280 275 260 246 228 211 207 219 223
14 6 358 357 353 353 353 346 343 340 336 333 341 344 340 341 340 336 337 336 333 329 327 326 328 325 326 325 324 322 302 279 262 261 261 260 255 246 235 220 205 202 214
15 4 354 356 350 353 351 342 337 330 327 331 338 335 337 339 338 337 337 336 333 328 325 325 325 321 321 330 326 323 317 307 326 288 265 250 243 236 236 225 212 207 202
17 4 353 350 347 349 349 342 338 327 330 335 336 333 338 338 336 335 334 335 332 329 324 323 321 320 319 316 311 309 317 319 329 307 312 296 265 236 229 227 217 213 210
17 3 349 345 344 347 348 342 341 340 337 335 333 330 335 335 333 335 336 336 331 328 324 322 322 316 311 310 310 292 282 292 297 308 312 318 322 297 251 228 220 213 211
15 1 347 343 343 344 346 341 339 334 332 330 330 330 331 331 333 335 336 333 330 327 324 321 318 311 308 304 304 301 290 275 264 276 290 300 307 305 304 269 226 209 205
11 358 346 343 342 342 343 339 338 335 334 333 334 333 332 330 332 334 334 331 328 327 325 322 316 310 305 301 301 301 294 280 267 263 272 286 295 300 307 300 279 228 202
Height
1586 1582 1580 1578 1575 1572 1570 1568 1565 1563 1561 1559 1557 1556 1554 1553 1552 1551 1550 1549 1549 1548 1548 1548 1547 1547 1547 1547 1546 1546 1546 1546 1546 1546 1547 1547 1547 1546 1546 1546 1546 1547 1548
1590 1585 1582 1579 1576 1574 1571 1569 1566 1564 1562 1560 1558 1556 1555 1553 1552 1550 1549 1548 1547 1546 1546 1546 1546 1545 1545 1545 1545 1545 1544 1544 1545 1545 1545 1546 1546 1546 1546 1546 1546 1547 1547
1592 1588 1583 1580 1577 1574 1572 1569 1567 1564 1562 1560 1558 1556 1555 1553 1551 1550 1548 1547 1545 1544 1543 1543 1543 1543 1542 1542 1542 1542 1542 1542 1543 1543 1544 1545 1545 1545 1545 1545 1546 1546 1547
1594 1590 1585 1581 1578 1575 1572 1569 1567 1565 1562 1560 1558 1556 1554 1552 1550 1548 1546 1545 1543 1542 1541 1540 1540 1540 1539 1539 1539 1539 1540 1540 1540 1541 1542 1543 1543 1544 1544 1545 1545 1545 1546
1595 1591 1586 1582 1578 1575 1572 1569 1566 1564 1562 1559 1557 1555 1553 1550 1548 1546 1544 1542 1541 1540 1538 1537 1537 1536 1536 1536 1536 1536 1536 1537 1538 1538 1540 1540 1541 1542 1543 1543 1544 1544 1545
1595 1591 1587 1583 1579 1576 1573 1570 1567 1564 1561 1559 1556 1554 1551 1549 1546 1544 1542 1540 1538 1537 1536 1535 1534 1533 1533 1533 1532 1532 1533 1533 1534 1535 1537 1538 1539 1540 1541 1542 1542 1543 1543
1595 1591 1588 1584 1581 1577 1574 1571 1568 1565 1561 1558 1555 1553 1550 1547 1544 1542 1540 1538 1536 1534 1533 1532 1531 1530 1529 1529 1529 1529 1529 1530 1530 1531 1533 1534 1536 1537 1538 1539 1540 1541 1541
1595 1591 1588 1584 1581 1578 1574 1571 1568 1565 1561 1558 1555 1552 1549 1546 1543 1540 1537 1535 1533 1531 1530 1528 1527 1526 1526 1525 1525 1525 1525 1526 1526 1528 1529 1530 1532 1533 1534 1536 1537 1538 1539
1595 1591 1587 1584 1581 1578 1574 1571 1568 1564 1560 1557 1553 1550 1547 1544 1541 1538 1534 1532 1529 1527 1526 1524 1523 1522 1522 1521 1521 1521 1521 1522 1523 1524 1525 1526 1527 1529 1530 1532 1534 1535 1536
1594 1590 1586 1583 1579 1576 1573 1569 1566 1562 1558 1555 1551 1547 1543 1540 1537 1534 1531 1529 1526 1523 1521 1520 1518 1517 1517 1517 1517 1517 1517 1517 1518 1519 1520 1521 1522 1524 1525 1527 1529 1531 1533
1593 1589 1585 1582 1578 1574 1570 1567 1563 1559 1555 1551 1547 1543 1539 1536 1533 1530 1527 1524 1522 1519 1517 1515 1513 1512 1512 1511 1511 1512 1512 1512 1513 1514 1515 1516 1517 1519 1520 1522 1525 1527 1529
1592 1589 1585 1581 1577 1573 1569 1564 1560 1556 1552 1548 1544 1540 1536 1532 1529 1525 1522 1520 1517 1514 1512 1510 1508 1507 1506 1506 1506 1506 1506 1507 1507 1509 1510 1511 1512 1514 1516 1518 1519 1522 1525
1594 1590 1585 1581 1576 1571 1566 1562 1557 1554 1550 1546 1542 1538 1533 1529 1525 1521 1517 1514 1512 1509 1506 1504 1503 1502 1500 1500 1500 1500 1501 1502 1502 1503 1505 1506 1507 1509 1511 1513 1515 1517 1520
1594 1590 1585 1580 1574 1569 1564 1560 1556 1552 1548 1544 1540 1536 1531 1526 1521 1517 1514 1511 1508 1504 1501 1499 1497 1496 1495 1494 1494 1494 1494 1495 1496 1498 1499 1500 1501 1503 1505 1507 1509 1512 1515
1594 1589 1584 1578 1573 1567 1562 1558 1554 1550 1546 1542 1538 1535 1530 1524 1519 1515 1511 1508 1505 1502 1498 1494 1492 1490 1488 1488 1488 1488 1487 1488 1489 1491 1493 1494 1495 1497 1500 1501 1503 1506 1509
1594 1588 1583 1578 1573 1567 1562 1558 1553 1549 1545 1540 1537 1533 1529 1523 1518 1513 1508 1505 1502 1498 1495 1491 1488 1485 1483 1482 1481 1481 1481 1481 1482 1483 1486 1488 1489 1491 1494 1495 1497 1499 1503
1593 1588 1582 1577 1572 1567 1562 1558 1553 1548 1544 1539 1535 1531 1527 1521 1517 1512 1507 1503 1499 1495 1491 1488 1485 1481 1478 1476 1475 1474 1474 1474 1475 1476 1478 1480 1482 1484 1487 1489 1490 1492 1496
1593 1587 1582 1577 1571 1566 1561 1557 1552 1547 1542 1537 1533 1529 1524 1519 1515 1510 1505 1501 1497 1492 1489 1485 1481 1477 1474 1471 1468 1468 1468 1468 1468 1469 1470 1472 1475 1477 1480 1482 1484 1486 1489
1592 1587 1581 1576 1570 1565 1560 1555 1550 1545 1540 1535 1531 1527 1522 1517 1512 1507 1503 1499 1494 1490 1486 1483 1478 1474 1470 1466 1463 1461 1461 1460 1461 1462 1463 1466 1468 1471 1473 1476 1478 1480 1482
1592 1586 1581 1575 1569 1563 1558 1553 1548 1543 1538 1533 1530 1525 1520 1515 1510 1505 1500 1496 1491 1487 1483 1480 1476 1472 1468 1463 1459 1455 1453 1453 1453 1455 1457 1460 1462 1465 1468 1470 1472 1474 1477
1590 1585 1580 1574 1568 1563 1557 1551 1545 1540 1536 1531 1528 1523 1518 1513 1508 1503 1498 1493 1489 1485 1481 1478 1474 1469 1465 1461 1456 1449 1446 1446 1446 1447 1450 1453 1456 1459 1462 1464 1466 1468 1470
1589 1584 1579 1573 1568 1563 1557 1552 1547 1541 1536 1531 1526 1521 1516 1511 1506 1501 1496 1492 1487 1483 1479 1476 1472 1468 1464 1462 1458 1452 1445 1441 1441 1441 1443 1445 1448 1452 1455 1457 1460 1462 1464
1589 1583 1578 1572 1567 1562 1557 1551 1544 1539 1533 1527 1521 1516 1512 1508 1503 1499 1495 1490 1485 1481 1477 1473 1470 1466 1462 1460 1459 1457 1452 1446 1439 1435 1436 1438 1442 1444 1447 1450 1453 1455 1458
1588 1582 1577 1572 1567 1561 1555 1549 1543 1537 1531 1526 1520 1515 1510 1505 1500 1496 1492 1487 1483 1478 1474 1471 1467 1464 1460 1457 1455 1454 1453 1450 1447 1437 1429 1430 1431 1435 1440 1443 1445 1448 1451
1587 1581 1576 1571 1565 1560 1554 1548 1542 1537 1531 1525 1519 1513 1507 1502 1498 1494 1489 1484 1479 1475 1471 1467 1463 1460 1457 1454 1451 1449 1448 1447 1445 1442 1434 1424 1425 1427 1431 1435 1438 1441 1444
1585 1580 1574 1569 1564 1558 1552 1547 1541 1535 1529 1523 1516 1510 1504 1499 1495 1490 1486 1481 1476 1471 1467 1463 1459 1456 1453 1450 1447 1444 1443 1441 1440 1438 1435 1428 1422 1420 1422 1425 1430 1434 1437